JLY7325 SBBR-SBCY

Flight info

Callsign JLY7325
Flight time N/A
Altitude 34000
Route SIREM DCT LODOV DCT MABMA DCT BOKIM
Aircraft A320/M-SDE3FGHIRWY/LB1

Departure

Time 2026-05-05 18:07
Airport Presidente Juscelino Kubitschek International Airport (SBBR)

Arrival

Time N/A
Airport Várzea Grande–Marechal Rondon International Airport (SBCY)
Time Latitude Longitude Altitude Speed Heading
2026-05-05 17:42 -15.87258 -47.91757 3470 ft 0 kts 354°
2026-05-05 17:54 -15.87279 -47.91755 3470 ft 4 kts 355°
2026-05-05 17:55 -15.87305 -47.91756 3469 ft 4 kts 32°
2026-05-05 17:55 -15.87320 -47.91776 3467 ft 3 kts 84°
2026-05-05 17:55 -15.87320 -47.91784 3467 ft 0 kts 86°
2026-05-05 17:57 -15.87319 -47.91764 3468 ft 7 kts 86°
2026-05-05 17:58 -15.87314 -47.91678 3470 ft 15 kts 86°
2026-05-05 17:58 -15.87335 -47.91576 3470 ft 15 kts 155°
2026-05-05 17:58 -15.87442 -47.91567 3469 ft 17 kts 176°
2026-05-05 17:58 -15.87592 -47.91554 3455 ft 25 kts 175°
2026-05-05 17:59 -15.87731 -47.91584 3457 ft 19 kts 245°
2026-05-05 17:59 -15.87738 -47.91704 3455 ft 16 kts 264°
2026-05-05 17:59 -15.87745 -47.91822 3455 ft 17 kts 266°
2026-05-05 17:59 -15.87753 -47.91944 3456 ft 17 kts 266°
2026-05-05 18:00 -15.87762 -47.92070 3458 ft 18 kts 265°
2026-05-05 18:00 -15.87770 -47.92195 3458 ft 17 kts 266°
2026-05-05 18:00 -15.87777 -47.92307 3462 ft 15 kts 266°
2026-05-05 18:00 -15.87784 -47.92405 3466 ft 12 kts 265°
2026-05-05 18:01 -15.87788 -47.92486 3468 ft 11 kts 267°
2026-05-05 18:01 -15.87792 -47.92564 3471 ft 12 kts 266°
2026-05-05 18:01 -15.87799 -47.92663 3474 ft 15 kts 266°
2026-05-05 18:01 -15.87807 -47.92781 3476 ft 18 kts 266°
2026-05-05 18:02 -15.87816 -47.92925 3478 ft 21 kts 267°
2026-05-05 18:02 -15.87825 -47.93079 3480 ft 21 kts 265°
2026-05-05 18:02 -15.87834 -47.93227 3482 ft 19 kts 266°
2026-05-05 18:02 -15.87840 -47.93330 3490 ft 13 kts 266°
2026-05-05 18:03 -15.87848 -47.93437 3499 ft 17 kts 266°
2026-05-05 18:03 -15.87857 -47.93577 3495 ft 20 kts 266°
2026-05-05 18:03 -15.87865 -47.93708 3502 ft 17 kts 266°
2026-05-05 18:03 -15.87872 -47.93818 3507 ft 14 kts 266°
2026-05-05 18:04 -15.87879 -47.93915 3515 ft 13 kts 266°
2026-05-05 18:04 -15.87918 -47.93994 3510 ft 13 kts 205°
2026-05-05 18:04 -15.87965 -47.93996 3514 ft 0 kts 176°
2026-05-05 18:05 -15.87966 -47.93996 3514 ft 1 kts 176°
2026-05-05 18:05 -15.87986 -47.93995 3515 ft 5 kts 177°
2026-05-05 18:05 -15.88032 -47.93985 3511 ft 9 kts 151°
2026-05-05 18:06 -15.88060 -47.93907 3510 ft 15 kts 87°
2026-05-05 18:06 -15.88058 -47.93888 3509 ft 0 kts 86°
2026-05-05 18:06 -15.88058 -47.93887 3507 ft 1 kts 86°
2026-05-05 18:06 -15.88053 -47.93798 3503 ft 38 kts 86°
2026-05-05 18:07 -15.88020 -47.93275 3482 ft 103 kts 86°
2026-05-05 18:07 -15.87962 -47.92352 3471 ft 152 kts 87°
2026-05-05 18:07 -15.87888 -47.91153 3762 ft 169 kts 96°
2026-05-05 18:07 -15.88326 -47.90107 4446 ft 161 kts 145°
2026-05-05 18:08 -15.89402 -47.89796 4920 ft 165 kts 166°
2026-05-05 18:08 -15.90576 -47.89513 5091 ft 184 kts 159°
2026-05-05 18:08 -15.91857 -47.89106 5295 ft 206 kts 157°
2026-05-05 18:08 -15.93306 -47.88631 5490 ft 231 kts 159°
2026-05-05 18:09 -15.94928 -47.88108 5850 ft 256 kts 160°
2026-05-05 18:09 -15.96700 -47.87547 6385 ft 272 kts 159°
2026-05-05 18:09 -15.98525 -47.86983 7156 ft 277 kts 160°
2026-05-05 18:09 -16.00391 -47.86412 7931 ft 281 kts 160°
2026-05-05 18:10 -16.02280 -47.85838 8721 ft 285 kts 162°
2026-05-05 18:10 -16.04270 -47.85612 9452 ft 296 kts 187°
2026-05-05 18:10 -16.06165 -47.86471 10151 ft 306 kts 219°
2026-05-05 18:10 -16.07451 -47.88261 10605 ft 321 kts 248°
2026-05-05 18:11 -16.07840 -47.90607 10770 ft 343 kts 270°
2026-05-05 18:11 -16.07825 -47.93165 10954 ft 363 kts 270°
2026-05-05 18:11 -16.07835 -47.95816 11441 ft 370 kts 267°
2026-05-05 18:11 -16.08239 -47.98467 11992 ft 374 kts 253°
2026-05-05 18:12 -16.09215 -48.00940 12547 ft 377 kts 240°
2026-05-05 18:12 -16.10498 -48.03321 13146 ft 379 kts 239°
2026-05-05 18:12 -16.11787 -48.05715 13731 ft 380 kts 240°
2026-05-05 18:12 -16.13077 -48.08129 14268 ft 382 kts 240°
2026-05-05 18:13 -16.14362 -48.10556 14790 ft 384 kts 240°
2026-05-05 18:13 -16.15646 -48.12993 15339 ft 384 kts 240°
2026-05-05 18:13 -16.16925 -48.15433 15900 ft 385 kts 240°
2026-05-05 18:13 -16.18207 -48.17880 16464 ft 386 kts 240°
2026-05-05 18:14 -16.19493 -48.20334 17028 ft 387 kts 240°
2026-05-05 18:14 -16.20762 -48.22759 17578 ft 388 kts 240°
2026-05-05 18:14 -16.22056 -48.25231 18129 ft 390 kts 240°
2026-05-05 18:14 -16.23362 -48.27718 18643 ft 392 kts 239°
2026-05-05 18:15 -16.24880 -48.30076 19099 ft 393 kts 229°
2026-05-05 18:15 -16.26704 -48.32198 19574 ft 395 kts 226°
2026-05-05 18:15 -16.28562 -48.34315 20048 ft 397 kts 226°
2026-05-05 18:15 -16.30433 -48.36445 20520 ft 400 kts 226°
2026-05-05 18:16 -16.32315 -48.38589 20977 ft 402 kts 226°
2026-05-05 18:16 -16.34205 -48.40748 21426 ft 405 kts 227°
2026-05-05 18:16 -16.36079 -48.42893 21863 ft 407 kts 227°
2026-05-05 18:16 -16.37986 -48.45080 22295 ft 409 kts 227°
2026-05-05 18:17 -16.39903 -48.47283 22718 ft 412 kts 227°
2026-05-05 18:17 -16.41831 -48.49499 23130 ft 414 kts 227°
2026-05-05 18:17 -16.43772 -48.51726 23530 ft 416 kts 227°
2026-05-05 18:17 -16.45725 -48.53965 23895 ft 418 kts 226°
2026-05-05 18:18 -16.47685 -48.56209 24247 ft 419 kts 227°
2026-05-05 18:18 -16.49649 -48.58458 24600 ft 420 kts 227°
2026-05-05 18:18 -16.51618 -48.60714 24951 ft 421 kts 227°
2026-05-05 18:18 -16.53586 -48.62974 25306 ft 422 kts 227°
2026-05-05 18:19 -16.55327 -48.65384 25616 ft 424 kts 237°
2026-05-05 18:19 -16.56723 -48.68101 25960 ft 426 kts 242°
2026-05-05 18:19 -16.58064 -48.70858 26288 ft 427 kts 241°
2026-05-05 18:19 -16.59414 -48.73614 26601 ft 428 kts 241°
2026-05-05 18:20 -16.60772 -48.76381 26940 ft 429 kts 241°
2026-05-05 18:20 -16.62129 -48.79149 27267 ft 430 kts 241°
2026-05-05 18:20 -16.63486 -48.81924 27596 ft 431 kts 241°
2026-05-05 18:20 -16.64836 -48.84679 27926 ft 432 kts 241°
2026-05-05 18:21 -16.66202 -48.87468 28253 ft 433 kts 241°
2026-05-05 18:21 -16.67569 -48.90266 28637 ft 432 kts 241°
2026-05-05 18:21 -16.68923 -48.93048 29134 ft 429 kts 241°
2026-05-05 18:21 -16.70266 -48.95811 29643 ft 426 kts 241°
2026-05-05 18:22 -16.71605 -48.98565 30164 ft 423 kts 241°
2026-05-05 18:22 -16.72934 -49.01291 30597 ft 421 kts 241°
2026-05-05 18:22 -16.74262 -49.04006 31025 ft 419 kts 240°
2026-05-05 18:22 -16.75581 -49.06703 31463 ft 416 kts 240°
2026-05-05 18:23 -16.76872 -49.09349 31889 ft 413 kts 240°
2026-05-05 18:23 -16.78170 -49.12012 32335 ft 411 kts 240°
2026-05-05 18:23 -16.79462 -49.14662 32780 ft 408 kts 240°
2026-05-05 18:23 -16.80740 -49.17290 33222 ft 406 kts 240°
2026-05-05 18:24 -16.82013 -49.19911 33658 ft 403 kts 239°
2026-05-05 18:24 -16.83280 -49.22518 34109 ft 401 kts 239°
2026-05-05 18:24 -16.84537 -49.25107 34481 ft 399 kts 239°
2026-05-05 18:24 -16.85790 -49.27685 34814 ft 397 kts 239°
2026-05-05 18:25 -16.87037 -49.30255 35052 ft 397 kts 239°
2026-05-05 18:25 -16.89548 -49.35418 35102 ft 408 kts 239°
2026-05-05 18:26 -16.92154 -49.40783 35082 ft 418 kts 240°
2026-05-05 18:26 -16.94782 -49.46222 35072 ft 420 kts 240°
2026-05-05 18:27 -16.97419 -49.51677 35072 ft 421 kts 240°
2026-05-05 18:27 -17.00062 -49.57128 35068 ft 421 kts 240°
2026-05-05 18:28 -17.04006 -49.65293 35071 ft 422 kts 240°
2026-05-05 18:28 -17.06650 -49.70762 35075 ft 422 kts 240°
2026-05-05 18:29 -17.09288 -49.76242 35095 ft 422 kts 240°
2026-05-05 18:29 -17.11928 -49.81720 35110 ft 422 kts 240°
2026-05-05 18:30 -17.14563 -49.87204 35123 ft 422 kts 240°
2026-05-05 18:30 -17.17183 -49.92659 35141 ft 422 kts 240°
2026-05-05 18:31 -17.19690 -49.98218 35146 ft 426 kts 248°
2026-05-05 18:31 -17.20481 -50.04410 35140 ft 440 kts 269°
2026-05-05 18:32 -17.19559 -50.10787 35119 ft 445 kts 273°
2026-05-05 18:32 -17.18570 -50.17173 35100 ft 445 kts 273°
2026-05-05 18:33 -17.17585 -50.23567 35083 ft 446 kts 273°
2026-05-05 18:33 -17.16598 -50.29923 35064 ft 446 kts 273°
2026-05-05 18:34 -17.15604 -50.36326 35064 ft 446 kts 273°
2026-05-05 18:34 -17.14601 -50.42736 35069 ft 447 kts 274°
2026-05-05 18:35 -17.13595 -50.49143 35067 ft 447 kts 274°
2026-05-05 18:35 -17.12582 -50.55558 35074 ft 447 kts 274°
2026-05-05 18:36 -17.11556 -50.61971 35076 ft 448 kts 274°
2026-05-05 18:36 -17.10543 -50.68354 35078 ft 448 kts 274°
2026-05-05 18:37 -17.09535 -50.74783 35075 ft 448 kts 274°
2026-05-05 18:37 -17.08528 -50.81212 35079 ft 449 kts 274°
2026-05-05 18:38 -17.07510 -50.87645 35081 ft 449 kts 274°
2026-05-05 18:38 -17.06480 -50.94084 35079 ft 449 kts 274°
2026-05-05 18:39 -17.05450 -51.00523 35078 ft 450 kts 274°
2026-05-05 18:39 -17.04422 -51.06923 35072 ft 450 kts 274°
2026-05-05 18:40 -17.03387 -51.13417 35070 ft 450 kts 274°
2026-05-05 18:40 -17.02359 -51.19827 35073 ft 451 kts 274°
2026-05-05 18:41 -17.01325 -51.26287 35077 ft 451 kts 274°
2026-05-05 18:41 -17.00283 -51.32754 35072 ft 451 kts 275°
2026-05-05 18:42 -16.99409 -51.38133 35071 ft 452 kts 275°
2026-05-05 18:42 -16.98196 -51.45655 35072 ft 452 kts 275°
2026-05-05 18:43 -16.97151 -51.52136 35074 ft 452 kts 275°
2026-05-05 18:43 -16.96100 -51.58615 35074 ft 453 kts 275°
2026-05-05 18:44 -16.95222 -51.64007 35075 ft 453 kts 275°
2026-05-05 18:44 -16.94172 -51.70495 35077 ft 453 kts 275°
2026-05-05 18:45 -16.92948 -51.78043 35076 ft 454 kts 275°
2026-05-05 18:45 -16.91875 -51.84537 35070 ft 454 kts 275°
2026-05-05 18:46 -16.90974 -51.89983 35070 ft 454 kts 275°
2026-05-05 18:46 -16.89905 -51.96448 35068 ft 455 kts 275°
2026-05-05 18:47 -16.88838 -52.02956 35070 ft 455 kts 275°